EW2984 Weather Reports


Display with metric or nautical units.
time (UTC)temp
F
wind
direction
speed
MPH
gust
MPH
rain 1hr
in
rain 24hr
in
rain mn
in
humidity
%
barometer
mb
20260831124543 72 131 0.0 1.0 0.00 0.00 0.00 92 1020.1
20260831123032 71 123 0.0 0.0 0.00 0.00 0.00 93 1020.1
20260831121532 71 123 0.0 0.0 0.00 0.00 0.00 93 1020.1
20260831120048 71 123 0.0 0.0 0.00 0.00 0.00 94 1020.1
20260831114528 71 123 0.0 0.0 0.00 0.00 0.00 94 1020.0
20260831113026 70 123 0.0 0.0 0.00 0.00 0.00 93 1019.8
20260831111524 70 123 0.0 0.0 0.00 0.00 0.00 93 1019.8
20260831110023 70 123 0.0 0.0 0.00 0.00 0.00 93 1019.6
20260831104521 70 123 0.0 0.0 0.00 0.00 0.00 93 1019.4
20260831103021 70 123 0.0 0.0 0.00 0.00 0.00 95 1019.1
20260831101518 70 123 0.0 0.0 0.00 0.00 0.00 95 1019.1
20260831100017 70 123 0.0 0.0 0.00 0.00 0.00 94 1019.1
20260831094516 70 123 0.0 0.0 0.00 0.00 0.00 95 1018.9
20260831093016 70 123 0.0 0.0 0.00 0.00 0.00 96 1018.8
20260831091514 70 123 0.0 0.0 0.00 0.00 0.00 96 1018.7
20260831090013 70 123 0.0 0.0 0.00 0.00 0.00 95 1018.6
20260831084512 71 123 0.0 0.0 0.00 0.00 0.00 95 1018.6
20260831083011 71 123 0.0 0.0 0.00 0.00 0.00 95 1018.6
20260831081515 71 123 0.0 0.0 0.00 0.00 0.00 95 1018.5
20260831080023 71 123 0.0 0.0 0.00 0.00 0.00 93 1018.5
20260831074507 71 123 0.0 0.0 0.00 0.00 0.00 92 1018.4
20260831073009 72 123 0.0 1.0 0.00 0.00 0.00 93 1018.3
20260831071504 72 123 0.0 1.0 0.00 0.00 0.00 95 1018.5
20260831070005 72 125 0.0 0.0 0.00 0.00 0.00 97 1018.6
20260831064504 72 125 0.0 0.0 0.00 0.00 0.00 97 1018.7
20260831063100 72 125 0.0 0.0 0.00 0.00 0.00 97 1018.9
20260831061605 72 125 0.0 0.0 0.00 0.00 0.00 97 1019.0
20260831060058 72 125 0.0 0.0 0.00 0.00 0.00 96 1019.0
20260831054558 72 125 0.0 0.0 0.00 0.00 0.00 95 1019.0
20260831053057 73 125 0.0 0.0 0.00 0.00 0.00 95 1019.1
20260831051600 73 125 0.0 0.0 0.00 0.00 0.00 95 1018.9
20260831050048 73 125 0.0 0.0 0.00 0.00 0.00 95 1018.9
20260831044544 73 125 0.0 0.0 0.00 0.00 0.00 95 1019.0
20260831043040 72 186 0.0 0.0 0.00 0.00 0.00 96 1018.9
20260831041538 72 210 0.0 0.0 0.00 0.00 0.00 95 1019.0
20260831040037 72 210 0.0 0.0 0.00 0.00 0.00 95 1019.2
20260831034542 73 210 0.0 0.0 0.00 0.00 0.00 95 1019.2
20260831033035 73 210 0.0 0.0 0.00 0.00 0.00 94 1019.3
20260831031535 73 210 0.0 0.0 0.00 0.00 0.00 94 1019.5
20260831030033 73 210 0.0 0.0 0.00 0.00 0.00 93 1019.4
20260831024535 74 210 0.0 1.0 0.00 0.00 0.00 91 1019.4
20260831023034 75 210 0.0 0.0 0.00 0.00 0.00 88 1019.4
20260831021532 75 210 0.0 0.0 0.00 0.00 0.00 85 1019.4
20260831020031 75 210 0.0 0.0 0.00 0.00 0.00 84 1019.4
20260831014532 76 210 0.0 0.0 0.00 0.00 0.00 84 1019.3
20260831013031 76 210 0.0 0.0 0.00 0.00 0.00 83 1019.4
20260831011538 76 210 0.0 0.0 0.00 0.00 0.00 83 1019.4
20260831010028 76 210 0.0 0.0 0.00 0.00 0.00 82 1019.2
20260831004528 76 210 0.0 0.0 0.00 0.00 0.00 82 1018.8
20260831003035 77 210 0.0 0.0 0.00 0.00 0.00 81 1018.6
20260831001527 77 210 0.0 0.0 0.00 0.00 0.00 81 1018.3
20260831000030 77 210 0.0 0.0 0.00 0.00 0.00 81 1018.1
20260830234536 78 210 0.0 0.0 0.00 0.00 0.00 81 1017.9
20260830233025 78 210 0.0 0.0 0.00 0.00 0.00 82 1018.1
20260830231525 79 148 0.0 0.0 0.00 0.00 0.00 83 1018.4
20260830230024 79 148 0.0 0.0 0.00 0.00 0.00 82 1018.5
20260830224523 80 148 0.0 0.0 0.00 0.00 0.00 81 1018.4
20260830223023 81 148 0.0 0.0 0.00 0.00 0.00 79 1018.4
20260830221532 81 148 0.0 0.0 0.00 0.00 0.00 79 1018.2
20260830220021 81 148 0.0 2.0 0.00 0.00 0.00 78 1018.0
20260830214522 82 134 0.0 1.0 0.00 0.00 0.00 79 1018.0
20260830213019 82 220 0.0 1.0 0.00 0.00 0.00 78 1018.1
20260830211520 83 207 0.0 2.0 0.00 0.00 0.00 75 1018.3
20260830210017 85 211 0.0 2.0 0.00 0.00 0.00 71 1018.3
20260830204514 84 231 0.0 2.0 0.00 0.00 0.00 75 1018.2
20260830203013 84 205 0.0 2.0 0.00 0.00 0.00 75 1018.2
20260830201510 83 163 0.0 0.0 0.00 0.00 0.00 77 1018.2
20260830200022 83 208 0.0 1.0 0.00 0.00 0.00 75 1018.4
20260830194504 82 221 0.0 1.0 0.00 0.00 0.00 77 1018.8
20260830193003 81 190 0.0 3.0 0.00 0.00 0.00 80 1019.0
20260830191600 80 213 1.0 4.0 0.00 0.00 0.00 80 1019.3
20260830190126 80 213 0.0 2.0 0.00 0.00 0.00 80 1019.5
20260830184609 81 219 0.0 5.0 0.00 0.00 0.00 77 1019.6
20260830183102 81 213 0.0 4.0 0.00 0.00 0.00 80 1019.8
20260830181553 81 155 0.0 4.0 0.00 0.00 0.00 79 1019.9
20260830180048 80 231 1.0 4.0 0.00 0.00 0.00 81 1020.1
20260830174557 80 226 1.0 4.0 0.00 0.00 0.00 82 1020.4
20260830173043 80 209 1.0 5.0 0.00 0.00 0.00 83 1020.4
20260830171542 78 210 0.0 5.0 0.00 0.00 0.00 84 1020.6
20260830170037 78 257 1.0 5.0 0.00 0.00 0.00 85 1020.8
20260830164536 78 209 1.0 4.0 0.00 0.00 0.00 83 1020.8
20260830163037 78 229 0.0 4.0 0.00 0.00 0.00 83 1020.9
20260830161539 78 216 0.0 1.0 0.00 0.00 0.00 85 1020.9
20260830160040 78 208 1.0 4.0 0.00 0.00 0.00 84 1021.2
20260830154530 78 191 0.0 4.0 0.00 0.00 0.00 84 1021.2
20260830153029 77 276 0.0 3.0 0.00 0.00 0.00 86 1021.4
20260830151525 76 231 0.0 2.0 0.00 0.00 0.00 87 1021.5
20260830150022 76 229 0.0 4.0 0.00 0.00 0.00 87 1021.4
20260830144527 75 205 0.0 5.0 0.00 0.00 0.00 87 1021.4
20260830143019 75 183 1.0 6.0 0.00 0.00 0.00 90 1021.1
20260830141516 73 233 0.0 3.0 0.00 0.00 0.00 92 1021.3
20260830140012 72 195 0.0 2.0 0.00 0.00 0.00 93 1021.3
20260830134511 71 211 0.0 2.0 0.00 0.00 0.00 94 1021.5
20260830133005 71 233 0.0 2.0 0.00 0.00 0.00 95 1021.7
20260830131502 70 167 0.0 2.0 0.00 0.00 0.00 95 1021.9
20260830130001 70 245 0.0 1.0 0.00 0.00 0.00 95 1021.8